Weather Roundup
Issued by NWS

Home | Current Version | Previous Version | Graphics & Text | Print | Product List | Glossary Off
Versions: 1 2 3 4 5 6 7 8 9 10 11 12 13 14 15 16 17 18 19 20 21 22 23 24 25 26 27 28 29 30 31 32 33 34 35 36 37 38 39 40 41 42 43 44 45 46 47 48 49 50

000
NZUS93 KARX 030710
HRRWXR

CURRENT HOURLY OBSERVATIONS ACROSS
MUCH OF THE UPPER MISSISSIPPI VALLEY
NATIONAL WEATHER SERVICE LA CROSSE WI
200 AM CDT MON AUG 03 2015


...SOUTHEAST MINNESOTA...


CITY           SKY/WX    TMP DP  RH WIND       PRES   REMARKS
ROCHESTER      CLEAR     58  54  86 NW8       29.89R
ROCHESTER/MAYO FAIR      63  55  74 W8        29.88R
WINONA         CLEAR     64  55  72 CALM      29.84S
AUSTIN         CLEAR     61  55  82 NW3       29.88F
ALBERT LEA     CLEAR     59  57  94 CALM      29.90R
DODGE CENTER   CLEAR     61  52  72 NW7       29.89R
PRESTON        CLEAR     60  55  82 NW6       29.88S
OWATONNA       CLEAR     59  54  82 CALM      29.89S
FARIBAULT      CLEAR     61  54  77 NW5       29.89S
$$

...ELSEWHERE IN MINNESOTA...


CITY           SKY/WX    TMP DP  RH WIND       PRES   REMARKS
MINNEAPOLIS    CLEAR     65  51  60 W5        29.87S
INTNL FALLS    CLOUDY    56  49  77 W5        29.76S
DULUTH         CLEAR     58  46  64 W9        29.79R
RED WING       CLEAR     59  54  82 CALM      29.85S
REDWOOD FALLS  CLEAR     60  53  77 NW5       29.91R
MANKATO        CLEAR     61  52  72 N6        29.90S
WORTHINGTON    CLEAR     59  52  77 NW7       29.96R
FAIRMONT       CLEAR     61  52  72 NW3       29.92R
$$

...SOUTHWEST WISCONSIN...


CITY           SKY/WX    TMP DP  RH WIND       PRES   REMARKS
LA CROSSE      CLEAR     66  55  67 NW7       29.82S
PRAIRIE DU CHI CLEAR     70  57  63 NW8       29.82R
BOSCOBEL       CLEAR     72  59  63 VRB3      29.81R
LONE ROCK      CLOUDY    73  56  54 N9        29.80R
PLATTEVILLE    PTCLDY    69  63  81 NW7       29.81R
FORT MC COY    CLEAR     65  49  55 NW5       29.83S
CAMP DOUGLAS   CLEAR     63  57  79 NW8       29.80R
VIROQUA        FAIR      65  55  70 N7        29.84R
WIS DELLS      CLEAR     67  56  66 NW3       29.80R
$$

...ELSEWHERE IN WISCONSIN...


CITY           SKY/WX    TMP DP  RH WIND       PRES   REMARKS
MILWAUKEE      PTCLDY    68  59  73 W3        29.74S
MADISON        PTCLDY    69  58  67 NW7       29.78R
GREEN BAY      CLEAR     63  60  90 W8        29.74R
EAU CLAIRE     CLEAR     61  47  59 W6        29.82S
BLACK RVR FLS  FAIR      62  49  64 NW3       29.82S
MEDFORD        CLEAR     56  52  85 W5        29.81S
WAUSAU         CLEAR     61  52  72 W7        29.78R
WIS RAPIDS     PTCLDY    62  55  77 NW6       29.81R
MARSHFIELD     CLEAR     60  52  74 NW8       29.81R
RICE LAKE      CLEAR     55  48  76 CALM      29.85S
$$

...NORTHEAST IOWA...


CITY           SKY/WX    TMP DP  RH WIND       PRES   REMARKS
DECORAH        PTCLDY    66  57  72 NW7       29.85R
MASON CITY     CLEAR     59  56  89 NW7       29.91S
CHARLES CITY   CLEAR     61  59  94 NW7       29.88S
OELWEIN        CLEAR     63  61  94 NW6       29.87S
$$

...ELSEWHERE IN IOWA...


CITY           SKY/WX    TMP DP  RH WIND       PRES   REMARKS
DES MOINES     PTCLDY    73  59  61 NE12      29.88R
IOWA CITY      CLEAR     71  64  78 NW8       29.83S
FORT DODGE     CLEAR     63  57  82 CALM      29.92R
$$

...NORTHERN ILLINOIS...


CITY           SKY/WX    TMP DP  RH WIND       PRES   REMARKS
CHICAGO-OHARE  MOCLDY    68  66  93 W5        29.75S
CHICAGO-MIDWAY MOCLDY    69  65  86 W3        29.74F
MOLINE         CLEAR     73  63  70 W8        29.79R
ROCKFORD       MOCLDY    72  64  76 CALM      29.78S
PEORIA         CLEAR     79  70  74 NW9       29.80R
$$

NOTE: "FAIR" INDICATES FEW OR NO CLOUDS BELOW 12,000 FEET WITH NO
SIGNIFICANT WEATHER AND/OR OBSTRUCTIONS TO VISIBILITY. WIND
SPEEDS ARE IN MILES-PER-HOUR.



USA.gov is the U.S. government's official web portal to all federal, state and local government web resources and services.